Terminal Aerodrome Forecast
Issued by NWS

Home | Current Version | Previous Version | Text Only | Print | Product List | Glossary On
Versions: 1 2 3 4 5 6 7 8 9 10 11 12 13 14 15 16 17 18 19 20 21 22 23 24 25 26
657
FTAK31 PANC 281007 AAA
TAFAAQ
TAF AMD
PAAQ 281007Z 2810/2906 15005KT P6SM VCSH SCT030 OVC045
      TEMPO 2810/2814 1 1/2SM -SN OVC030
     FM282200 VRB03KT P6SM -SN SCT020 BKN040
     FM290400 VRB03KT 4SM -SN SCT015 BKN030=

USA.gov is the U.S. government's official web portal to all federal, state and local government web resources and services.